Melfa, VA

11:15 AM EDT on March 30, 2017 (GMT -0400)
Accomack County

Weather History for KMFV - October, 2011

Change the Weather History Date:

Sunday, October 2, 2011

  Actual Average (KWAL) Record (KWAL)
Temperature  
Mean Temperature 54 °F -  
Max Temperature 57 °F 71 °F 87 °F (2002)
Min Temperature 51 °F 53 °F 41 °F (1997)
Degree Days  
Heating Degree Days 11    
Growing Degree Days 4 (Base 50)    
Moisture  
Dew Point 46 °F    
Average Humidity 75    
Maximum Humidity 82    
Minimum Humidity 63    
Precipitation  
Precipitation 0.00 in - - ()
Sea Level Pressure  
Sea Level Pressure 29.86 in    
Wind  
Wind Speed 8 mph (West)    
Max Wind Speed 14 mph    
Max Gust Speed 26 mph    
Visibility 10 miles    
Events Rain    
Averages and records for this station are not official NWS values.
T = Trace of Precipitation, MM = Missing Value Source: NWS Daily Summary

Daily Weather History Graph

Daily Weather History Graph

Search for Another Location

Airport or City:

Trip Planner

Search our weather history database for the weather conditions in past years. The results will help you decide how hot, cold, wet, or windy it might be!

Date:

Astronomy

Oct. 02, 2011 Rise Set
Actual Time 6:59 AM EDT 6:45 PM EDT
Civil Twilight 6:33 AM EDT 7:11 PM EDT
Nautical Twilight 6:02 AM EDT 7:41 PM EDT
Astronomical Twilight 5:32 AM EDT 8:11 PM EDT
Moon 12:57 PM EDT (10/2) 10:47 PM EDT (10/2)
Length of Visible Light 12h 38m
Length of Day
11h 45m
Waxing Crescent, 34% of the Moon is Illuminated
Oct 2
Waxing Crescent
Oct 3
First Quarter
Oct 11
Full
Oct 19
Last Quarter
Oct 26
New

Hourly Weather History & Observations

Time (EDT) Temp. Dew Point Humidity Pressure Visibility Wind Dir Wind Speed Gust Speed Precip Events Conditions
12:15 AM 55.4 °F 48.2 °F 77% 29.81 in 10.0 mi West 5.8 mph - N/A   Unknown
12:35 AM 53.6 °F 48.2 °F 82% 29.81 in 10.0 mi West 6.9 mph - N/A   Unknown
12:55 AM 53.6 °F 48.2 °F 82% 29.81 in 10.0 mi West 5.8 mph - N/A   Unknown
1:15 AM 53.6 °F 48.2 °F 82% 29.81 in 10.0 mi West 5.8 mph - N/A   Unknown
1:55 AM 53.6 °F 48.2 °F 82% 29.80 in 10.0 mi West 4.6 mph - N/A   Unknown
2:15 AM 53.6 °F 48.2 °F 82% 29.80 in 10.0 mi West 6.9 mph - N/A   Unknown
2:35 AM 53.6 °F 48.2 °F 82% 29.80 in 10.0 mi West 8.1 mph - N/A   Unknown
2:55 AM 53.6 °F 48.2 °F 82% 29.80 in 10.0 mi West 8.1 mph - N/A   Unknown
3:15 AM 53.6 °F 48.2 °F 82% 29.80 in 10.0 mi West 9.2 mph - N/A   Unknown
3:35 AM 53.6 °F 48.2 °F 82% 29.80 in 10.0 mi WSW 6.9 mph - N/A   Unknown
3:55 AM 53.6 °F 48.2 °F 82% 29.80 in 10.0 mi WSW 6.9 mph - N/A   Unknown
4:15 AM 53.6 °F 48.2 °F 82% 29.81 in 10.0 mi West 5.8 mph - N/A   Unknown
4:35 AM 53.6 °F 48.2 °F 82% 29.82 in 10.0 mi West 10.4 mph - N/A   Unknown
4:55 AM 53.6 °F 48.2 °F 82% 29.82 in 10.0 mi West 6.9 mph - N/A   Unknown
5:15 AM 53.6 °F 48.2 °F 82% 29.82 in 10.0 mi West 8.1 mph - N/A   Unknown
5:35 AM 53.6 °F 46.4 °F 77% 29.82 in 10.0 mi WNW 8.1 mph - N/A   Unknown
5:55 AM 53.6 °F 48.2 °F 82% 29.82 in 10.0 mi West 6.9 mph - N/A   Unknown
6:15 AM 53.6 °F 46.4 °F 77% 29.82 in 10.0 mi WSW 11.5 mph 16.1 mph N/A   Unknown
6:35 AM 53.6 °F 46.4 °F 77% 29.83 in 10.0 mi West 6.9 mph - N/A   Unknown
6:55 AM 53.6 °F 46.4 °F 77% 29.83 in 10.0 mi West 13.8 mph 18.4 mph N/A   Unknown
7:15 AM 53.6 °F 44.6 °F 72% 29.84 in 10.0 mi West 12.7 mph 18.4 mph N/A   Unknown
7:35 AM 53.6 °F 44.6 °F 72% 29.84 in 10.0 mi WNW 11.5 mph 19.6 mph N/A   Unknown
7:55 AM 53.6 °F 44.6 °F 72% 29.84 in 10.0 mi West 11.5 mph 19.6 mph N/A   Unknown
8:15 AM 53.6 °F 46.4 °F 77% 29.84 in 10.0 mi West 10.4 mph 18.4 mph N/A   Unknown
8:35 AM 53.6 °F 46.4 °F 77% 29.84 in 10.0 mi West 11.5 mph 20.7 mph N/A   Unknown
9:15 AM 53.6 °F 44.6 °F 72% 29.85 in 10.0 mi West 12.7 mph 23.0 mph N/A   Unknown
9:35 AM 53.6 °F 44.6 °F 72% 29.85 in 10.0 mi West 11.5 mph 19.6 mph N/A   Unknown
9:55 AM 53.6 °F 44.6 °F 72% 29.85 in 10.0 mi West 11.5 mph 18.4 mph N/A   Unknown
10:15 AM 53.6 °F 46.4 °F 77% 29.85 in 10.0 mi WNW 12.7 mph 17.3 mph N/A   Unknown
10:35 AM 53.6 °F 46.4 °F 77% 29.86 in 10.0 mi WNW 12.7 mph 20.7 mph N/A   Unknown
10:55 AM 55.4 °F 46.4 °F 72% 29.87 in 10.0 mi West 13.8 mph - N/A   Unknown
11:15 AM 55.4 °F 46.4 °F 72% 29.87 in 10.0 mi West 12.7 mph 17.3 mph N/A   Unknown
11:35 AM 53.6 °F 44.6 °F 72% 29.87 in 10.0 mi WNW 11.5 mph - N/A   Unknown
11:55 AM 53.6 °F 44.6 °F 72% 29.87 in 10.0 mi West 6.9 mph - N/A   Unknown
12:15 PM 53.6 °F 44.6 °F 72% 29.88 in 10.0 mi West 9.2 mph - N/A   Unknown
12:35 PM 55.4 °F 44.6 °F 67% 29.88 in 10.0 mi West 11.5 mph 16.1 mph N/A   Unknown
12:55 PM 55.4 °F 44.6 °F 67% 29.89 in 10.0 mi West 11.5 mph 20.7 mph N/A   Unknown
1:15 PM 55.4 °F 44.6 °F 67% 29.89 in 10.0 mi West 8.1 mph 18.4 mph N/A   Unknown
1:35 PM 57.2 °F 46.4 °F 67% 29.88 in 10.0 mi WSW 9.2 mph - N/A   Unknown
1:55 PM 55.4 °F 44.6 °F 67% 29.88 in 7.0 mi West 10.4 mph 19.6 mph N/A Rain Rain
2:15 PM 51.8 °F 46.4 °F 82% 29.89 in 5.0 mi WSW 6.9 mph - N/A Rain Rain
2:55 PM 55.4 °F 48.2 °F 77% 29.89 in 10.0 mi West 6.9 mph - N/A   Unknown
3:15 PM 55.4 °F 46.4 °F 72% 29.89 in 10.0 mi WNW 10.4 mph 17.3 mph N/A   Unknown
3:55 PM 55.4 °F 46.4 °F 72% 29.90 in 10.0 mi West 5.8 mph - N/A   Unknown
4:15 PM 55.4 °F 46.4 °F 72% 29.90 in 10.0 mi West 10.4 mph - N/A   Unknown
4:35 PM 55.4 °F 44.6 °F 67% 29.91 in 10.0 mi West 12.7 mph 26.5 mph N/A   Unknown
4:55 PM 55.4 °F 44.6 °F 67% 29.91 in 10.0 mi West 11.5 mph - N/A   Unknown
5:35 PM 55.4 °F 44.6 °F 67% 29.92 in 10.0 mi West 11.5 mph 20.7 mph N/A   Unknown
6:15 PM 53.6 °F 44.6 °F 72% 29.94 in 10.0 mi WNW 8.1 mph - N/A   Unknown
6:35 PM 55.4 °F 44.6 °F 67% 29.94 in 10.0 mi WNW 13.8 mph 20.7 mph N/A   Unknown
6:55 PM 55.4 °F 44.6 °F 67% 29.94 in 10.0 mi West 9.2 mph 18.4 mph N/A   Unknown
7:15 PM 53.6 °F 42.8 °F 67% 29.95 in 10.0 mi West 8.1 mph - N/A   Unknown
7:55 PM 55.4 °F 42.8 °F 63% 29.97 in 10.0 mi West 8.1 mph - N/A   Unknown
8:15 PM 55.4 °F 42.8 °F 63% 29.97 in 10.0 mi West 6.9 mph - N/A   Unknown
8:35 PM 55.4 °F 44.6 °F 67% 29.98 in 10.0 mi West 5.8 mph - N/A   Unknown
8:55 PM 55.4 °F 44.6 °F 67% 29.98 in 10.0 mi WNW 6.9 mph - N/A   Unknown
9:15 PM 55.4 °F 44.6 °F 67% 29.98 in 10.0 mi West 5.8 mph - N/A   Unknown
9:35 PM 55.4 °F 44.6 °F 67% 29.99 in 10.0 mi West 3.5 mph - N/A   Unknown
9:55 PM 55.4 °F 44.6 °F 67% 29.99 in 10.0 mi WNW 3.5 mph - N/A   Unknown
10:15 PM 55.4 °F 44.6 °F 67% 30.00 in 10.0 mi West 3.5 mph - N/A   Unknown
10:35 PM 55.4 °F 44.6 °F 67% 29.99 in 10.0 mi West 4.6 mph - N/A   Unknown
11:15 PM 53.6 °F 46.4 °F 77% 29.99 in 10.0 mi Calm Calm - N/A   Unknown
11:35 PM 51.8 °F 46.4 °F 82% 29.99 in 10.0 mi Calm Calm - N/A   Unknown
11:55 PM 50.0 °F 46.4 °F 87% 29.99 in 10.0 mi Calm Calm - N/A   Unknown